Temp
-10 -10 -10 -10 -11 -11 -11 -11 -11 -11 -11 -11 -11 -11 -11 -11 -11 -11 -11 -11 -11 -11 -11 -11 -11 -11 -11 -11 -11 -11 -11 -11 -12 -12 -12 -12 -12 -12 -12 -12 -12 -12 -12 -12 -12 -12 -12 -12 -12 -12 -12 -12
-11 -11 -11 -11 -11 -11 -11 -11 -11 -11 -11 -11 -11 -11 -11 -11 -11 -11 -11 -11 -11 -11 -11 -11 -11 -11 -11 -11 -12 -12 -12 -12 -12 -12 -12 -12 -12 -12 -12 -12 -12 -12 -12 -12 -12 -12 -12 -12 -12 -12 -12 -12
-11 -11 -11 -11 -11 -11 -11 -11 -11 -11 -11 -12 -12 -12 -12 -11 -11 -11 -11 -11 -11 -11 -11 -12 -12 -12 -12 -12 -12 -12 -12 -12 -12 -12 -12 -12 -12 -12 -12 -12 -12 -12 -12 -12 -12 -12 -12 -12 -12 -13 -13 -13
-11 -11 -11 -11 -11 -11 -11 -11 -12 -12 -12 -12 -12 -12 -12 -12 -12 -12 -12 -12 -12 -12 -12 -12 -12 -12 -12 -12 -12 -12 -12 -12 -12 -13 -13 -13 -13 -13 -13 -13 -13 -13 -13 -13 -13 -13 -13 -13 -13 -13 -13 -13
-11 -11 -11 -11 -11 -11 -12 -12 -12 -12 -12 -12 -12 -12 -12 -12 -12 -12 -12 -12 -12 -12 -12 -12 -12 -12 -12 -12 -13 -13 -13 -13 -13 -13 -13 -13 -13 -13 -13 -13 -13 -13 -13 -13 -13 -13 -13 -13 -13 -13 -13 -13
-11 -11 -11 -11 -12 -12 -12 -12 -12 -12 -12 -12 -12 -12 -12 -12 -12 -12 -12 -12 -12 -12 -12 -12 -12 -12 -13 -13 -13 -13 -13 -13 -13 -13 -13 -13 -13 -13 -13 -13 -13 -13 -14 -14 -14 -14 -14 -14 -14 -14 -14 -14
-11 -11 -12 -12 -12 -12 -12 -12 -12 -12 -12 -12 -12 -12 -12 -12 -12 -12 -12 -12 -12 -12 -12 -12 -13 -13 -13 -13 -13 -13 -13 -13 -14 -14 -14 -14 -14 -14 -14 -14 -14 -14 -14 -14 -14 -14 -14 -14 -14 -14 -14 -14
-11 -12 -12 -12 -12 -12 -12 -12 -12 -12 -12 -12 -12 -12 -12 -12 -12 -12 -12 -12 -12 -12 -13 -13 -13 -13 -13 -13 -13 -14 -14 -14 -14 -14 -14 -14 -14 -14 -14 -14 -14 -14 -14 -14 -14 -14 -14 -14 -14 -14 -14 -14
-12 -12 -12 -12 -12 -12 -12 -12 -12 -12 -12 -12 -12 -12 -12 -12 -12 -12 -12 -13 -13 -13 -13 -13 -13 -13 -14 -14 -14 -14 -14 -14 -14 -14 -14 -14 -14 -14 -15 -15 -15 -15 -15 -15 -15 -15 -15 -15 -15 -15 -15 -15
-12 -12 -12 -12 -12 -12 -12 -12 -12 -12 -12 -12 -12 -12 -12 -12 -12 -13 -13 -13 -13 -13 -13 -13 -13 -14 -14 -14 -14 -14 -14 -14 -15 -15 -15 -15 -15 -15 -15 -15 -15 -15 -15 -15 -15 -15 -15 -15 -15 -15 -15 -15
-12 -12 -12 -12 -12 -12 -12 -12 -12 -12 -12 -12 -12 -12 -13 -13 -13 -13 -13 -13 -13 -13 -13 -14 -14 -14 -14 -15 -15 -15 -15 -15 -15 -15 -15 -15 -15 -15 -15 -15 -16 -16 -16 -16 -16 -16 -16 -16 -16 -16 -16 -16
-12 -12 -12 -12 -12 -12 -12 -12 -12 -12 -13 -13 -13 -13 -13 -13 -13 -13 -13 -14 -14 -14 -14 -14 -14 -15 -15 -15 -15 -15 -15 -15 -15 -15 -15 -15 -15 -16 -16 -16 -16 -16 -16 -16 -16 -16 -16 -16 -16 -16 -16 -16
-12 -12 -12 -12 -12 -12 -12 -12 -13 -13 -13 -13 -13 -13 -13 -13 -13 -14 -14 -14 -14 -14 -14 -15 -15 -15 -15 -15 -15 -15 -16 -16 -16 -16 -16 -16 -16 -16 -16 -16 -16 -16 -16 -16 -16 -16 -16 -17 -16 -16 -17 -17
-12 -12 -12 -12 -12 -12 -13 -13 -13 -13 -13 -13 -13 -13 -13 -14 -14 -14 -14 -14 -14 -15 -15 -15 -15 -15 -16 -16 -16 -16 -16 -16 -16 -16 -16 -16 -16 -16 -16 -16 -16 -17 -17 -17 -17 -17 -17 -17 -17 -17 -17 -17
-12 -12 -12 -12 -13 -13 -13 -13 -13 -13 -13 -13 -13 -14 -14 -14 -14 -14 -14 -15 -15 -15 -15 -15 -16 -16 -16 -16 -16 -16 -16 -16 -16 -16 -16 -17 -17 -17 -17 -17 -17 -17 -17 -17 -17 -17 -17 -17 -17 -17 -17 -17
-12 -12 -12 -13 -13 -13 -13 -13 -13 -13 -13 -13 -13 -14 -14 -14 -14 -14 -15 -15 -15 -15 -16 -16 -16 -16 -16 -16 -16 -16 -16 -17 -17 -17 -17 -17 -17 -17 -17 -17 -17 -17 -17 -17 -17 -17 -17 -17 -17 -18 -18 -18
-12 -12 -12 -13 -13 -13 -13 -13 -13 -13 -13 -13 -14 -14 -14 -14 -14 -15 -15 -15 -15 -16 -16 -16 -16 -16 -16 -17 -17 -17 -17 -17 -17 -17 -17 -17 -17 -17 -17 -17 -17 -17 -17 -17 -18 -18 -18 -18 -18 -18 -18 -18
-12 -12 -13 -13 -13 -13 -13 -13 -13 -13 -13 -14 -14 -14 -14 -14 -15 -15 -15 -15 -16 -16 -16 -16 -16 -16 -17 -17 -17 -17 -17 -17 -17 -17 -17 -17 -17 -18 -17 -17 -18 -18 -18 -18 -18 -18 -18 -18 -18 -18 -18 -19
-12 -13 -13 -13 -13 -13 -13 -13 -13 -13 -14 -14 -14 -14 -14 -15 -15 -15 -15 -16 -16 -16 -16 -16 -16 -17 -17 -17 -17 -17 -17 -17 -17 -17 -17 -18 -18 -18 -18 -18 -18 -18 -18 -18 -18 -18 -18 -18 -19 -19 -19 -19
-12 -13 -13 -13 -13 -13 -13 -13 -13 -14 -14 -14 -14 -14 -15 -15 -15 -15 -15 -16 -16 -16 -16 -16 -17 -17 -17 -17 -17 -17 -17 -17 -18 -18 -18 -18 -18 -18 -18 -18 -18 -18 -18 -18 -18 -19 -19 -19 -19 -19 -19 -19
-13 -13 -13 -13 -13 -13 -13 -14 -14 -14 -14 -14 -15 -15 -15 -15 -15 -16 -16 -16 -16 -16 -16 -17 -17 -17 -17 -17 -17 -17 -17 -17 -18 -18 -18 -18 -18 -18 -18 -18 -18 -18 -19 -19 -19 -19 -19 -19 -19 -19 -19 -19
-12 -12 -13 -13 -13 -13 -14 -14 -14 -14 -14 -15 -15 -15 -15 -15 -16 -16 -16 -16 -16 -16 -17 -17 -17 -17 -17 -17 -17 -17 -17 -17 -18 -18 -18 -18 -18 -18 -18 -18 -18 -18 -19 -19 -19 -19 -19 -19 -19 -19 -20 -20
-12 -12 -13 -13 -13 -14 -14 -14 -14 -14 -15 -15 -15 -15 -15 -16 -16 -16 -16 -16 -16 -17 -17 -17 -17 -17 -17 -17 -17 -17 -17 -17 -18 -18 -18 -18 -18 -19 -19 -19 -18 -18 -19 -19 -19 -19 -20 -20 -20 -20 -20 -20
-12 -12 -13 -13 -13 -14 -14 -14 -14 -15 -15 -15 -15 -16 -16 -16 -16 -16 -17 -17 -17 -17 -17 -17 -17 -17 -17 -17 -17 -18 -18 -18 -18 -18 -18 -18 -19 -19 -19 -19 -19 -19 -19 -19 -19 -19 -20 -20 -20 -20 -20 -20
-12 -13 -13 -13 -13 -14 -14 -14 -15 -15 -15 -15 -16 -16 -16 -16 -16 -16 -17 -17 -17 -17 -17 -17 -17 -17 -17 -18 -18 -18 -18 -18 -18 -18 -19 -19 -19 -19 -19 -19 -19 -19 -19 -19 -19 -19 -20 -20 -20 -20 -20 -20
-13 -13 -13 -13 -13 -14 -14 -14 -15 -15 -15 -16 -16 -16 -16 -16 -16 -16 -16 -17 -17 -17 -17 -17 -17 -18 -18 -18 -18 -18 -18 -19 -19 -19 -19 -19 -19 -19 -19 -19 -20 -20 -20 -19 -19 -19 -19 -20 -20 -21 -21 -21
-13 -13 -13 -13 -13 -14 -14 -14 -15 -15 -15 -16 -16 -16 -16 -16 -16 -16 -17 -17 -17 -17 -17 -18 -18 -18 -18 -18 -18 -19 -19 -19 -19 -19 -19 -19 -19 -19 -20 -20 -20 -20 -20 -20 -20 -20 -20 -20 -20 -20 -21 -21
-13 -13 -13 -13 -13 -14 -14 -14 -15 -15 -15 -15 -16 -16 -16 -16 -16 -16 -16 -17 -17 -17 -17 -18 -18 -18 -18 -18 -19 -19 -19 -19 -19 -19 -19 -19 -20 -20 -20 -20 -20 -20 -20 -20 -20 -20 -20 -20 -20 -20 -20 -21
-13 -13 -13 -13 -14 -14 -14 -14 -14 -14 -14 -15 -15 -15 -15 -15 -16 -16 -16 -16 -16 -17 -17 -18 -18 -18 -18 -18 -19 -19 -19 -19 -19 -20 -20 -20 -20 -20 -20 -20 -20 -21 -21 -21 -21 -21 -20 -20 -20 -20 -20 -21
-13 -13 -13 -13 -14 -14 -14 -14 -14 -14 -14 -14 -15 -15 -15 -15 -15 -15 -16 -16 -16 -16 -17 -17 -18 -18 -18 -19 -19 -19 -19 -20 -20 -20 -20 -20 -20 -20 -20 -20 -21 -21 -21 -21 -21 -21 -21 -21 -21 -21 -21 -21
-13 -13 -13 -13 -14 -14 -14 -14 -14 -14 -14 -14 -14 -14 -15 -15 -15 -15 -15 -16 -16 -16 -17 -17 -17 -18 -18 -19 -19 -19 -20 -20 -20 -20 -20 -20 -20 -20 -20 -21 -21 -21 -21 -21 -21 -22 -22 -22 -22 -22 -21 -21
Height
5827 5825 5823 5822 5820 5819 5817 5816 5814 5812 5811 5809 5807 5806 5804 5802 5800 5798 5797 5795 5793 5791 5789 5787 5785 5783 5782 5780 5778 5776 5774 5772 5770 5768 5766 5764 5763 5761 5759 5757 5755 5753 5751 5749 5747 5745 5743 5741 5739 5736 5734 5732
5824 5822 5821 5819 5817 5816 5814 5812 5811 5809 5807 5806 5804 5802 5801 5799 5797 5795 5793 5791 5789 5787 5785 5784 5782 5780 5778 5776 5774 5772 5770 5768 5766 5764 5762 5760 5758 5756 5754 5752 5750 5748 5746 5744 5742 5740 5738 5736 5734 5731 5729 5727
5820 5819 5817 5815 5814 5812 5810 5809 5807 5806 5804 5802 5801 5799 5797 5796 5794 5792 5790 5788 5786 5784 5782 5780 5779 5777 5775 5773 5771 5769 5766 5764 5762 5760 5758 5755 5753 5751 5750 5748 5746 5744 5742 5740 5738 5736 5734 5731 5729 5726 5724 5722
5817 5815 5814 5812 5810 5809 5807 5806 5804 5802 5801 5799 5798 5796 5794 5793 5791 5789 5787 5785 5783 5781 5779 5777 5775 5773 5771 5769 5767 5764 5762 5760 5758 5755 5753 5751 5749 5747 5745 5743 5741 5739 5737 5735 5733 5731 5729 5726 5724 5722 5719 5717
5813 5812 5810 5809 5807 5806 5804 5802 5801 5800 5798 5796 5795 5793 5791 5790 5788 5786 5784 5781 5779 5777 5775 5773 5771 5769 5767 5765 5762 5760 5758 5756 5754 5751 5749 5747 5745 5743 5741 5739 5737 5734 5732 5730 5728 5726 5724 5722 5719 5717 5715 5712
5811 5809 5807 5806 5804 5803 5801 5800 5798 5797 5795 5794 5792 5790 5788 5786 5784 5782 5780 5778 5776 5774 5772 5770 5768 5765 5763 5761 5758 5756 5754 5752 5750 5747 5745 5743 5741 5738 5736 5734 5731 5729 5727 5725 5723 5721 5719 5717 5714 5712 5709 5707
5808 5806 5804 5803 5801 5800 5798 5797 5795 5794 5792 5790 5789 5787 5785 5783 5781 5779 5777 5775 5772 5770 5768 5766 5764 5761 5759 5757 5754 5752 5750 5748 5746 5743 5741 5738 5736 5733 5731 5729 5726 5724 5722 5720 5718 5716 5714 5711 5709 5706 5704 5702
5805 5803 5801 5800 5799 5797 5796 5794 5793 5791 5789 5787 5786 5784 5782 5780 5777 5775 5773 5771 5769 5766 5764 5762 5759 5757 5755 5753 5750 5748 5746 5744 5741 5739 5736 5734 5731 5729 5726 5724 5722 5719 5717 5715 5713 5711 5709 5706 5704 5702 5699 5697
5802 5801 5799 5798 5796 5795 5793 5792 5790 5788 5786 5784 5782 5780 5778 5776 5774 5772 5769 5767 5765 5762 5760 5758 5755 5753 5751 5748 5746 5744 5741 5739 5737 5734 5732 5729 5727 5724 5722 5720 5717 5715 5713 5711 5708 5706 5704 5701 5699 5696 5694 5691
5800 5798 5797 5795 5794 5792 5790 5789 5787 5785 5783 5781 5779 5776 5774 5772 5770 5768 5765 5763 5760 5758 5756 5754 5751 5749 5747 5744 5742 5740 5737 5735 5732 5730 5728 5725 5723 5720 5718 5716 5713 5711 5708 5705 5703 5701 5698 5696 5693 5691 5688 5685
5797 5796 5794 5792 5791 5789 5787 5785 5783 5781 5779 5777 5775 5773 5771 5769 5766 5764 5761 5759 5757 5754 5752 5749 5747 5745 5742 5740 5738 5735 5733 5730 5728 5726 5723 5721 5718 5716 5713 5711 5709 5706 5703 5700 5698 5695 5693 5691 5688 5685 5683 5680
5794 5793 5791 5789 5787 5786 5784 5782 5780 5778 5776 5774 5772 5769 5767 5765 5763 5760 5758 5755 5753 5750 5748 5745 5743 5741 5738 5736 5734 5731 5729 5726 5724 5722 5719 5717 5714 5712 5709 5706 5704 5702 5699 5696 5693 5691 5688 5686 5684 5681 5678 5676
5792 5790 5788 5787 5785 5783 5781 5779 5777 5775 5773 5770 5768 5766 5764 5762 5759 5757 5754 5751 5749 5746 5744 5742 5739 5737 5734 5732 5730 5727 5725 5723 5720 5718 5715 5713 5710 5707 5705 5702 5700 5697 5694 5692 5689 5686 5684 5681 5679 5676 5674 5671
5790 5788 5786 5784 5782 5780 5778 5776 5774 5772 5769 5767 5765 5763 5761 5758 5755 5753 5750 5747 5745 5742 5740 5737 5735 5733 5730 5728 5725 5723 5721 5719 5716 5714 5711 5708 5706 5703 5700 5698 5695 5692 5689 5687 5684 5682 5679 5676 5674 5671 5668 5666
5787 5785 5783 5781 5779 5777 5775 5773 5770 5768 5766 5764 5761 5759 5756 5754 5751 5749 5746 5743 5741 5738 5736 5733 5731 5728 5726 5724 5721 5719 5717 5714 5712 5709 5707 5704 5701 5699 5696 5693 5690 5688 5685 5682 5679 5676 5673 5671 5668 5665 5663 5660
5784 5782 5780 5778 5776 5774 5771 5769 5767 5764 5762 5760 5757 5755 5752 5750 5747 5745 5742 5740 5737 5735 5732 5729 5727 5724 5722 5720 5717 5715 5712 5710 5707 5705 5702 5699 5697 5694 5691 5688 5686 5683 5680 5677 5674 5671 5668 5665 5662 5659 5657 5654
5781 5779 5777 5775 5772 5770 5768 5766 5763 5761 5758 5756 5753 5751 5748 5746 5743 5740 5738 5736 5733 5730 5728 5725 5723 5720 5718 5715 5713 5710 5708 5705 5702 5700 5697 5694 5691 5689 5686 5683 5680 5677 5674 5671 5668 5665 5662 5659 5656 5653 5650 5647
5778 5776 5774 5772 5769 5767 5765 5762 5760 5757 5755 5752 5749 5746 5744 5741 5739 5736 5734 5731 5729 5726 5724 5721 5719 5716 5713 5711 5708 5705 5703 5700 5697 5695 5692 5689 5686 5683 5680 5678 5675 5672 5668 5665 5662 5659 5656 5653 5650 5646 5643 5641
5775 5773 5771 5769 5766 5764 5761 5759 5756 5753 5750 5748 5745 5742 5740 5737 5735 5732 5730 5727 5724 5722 5719 5716 5714 5711 5708 5705 5703 5700 5697 5695 5691 5689 5686 5684 5681 5677 5674 5671 5669 5666 5663 5659 5656 5653 5650 5647 5644 5641 5637 5634
5772 5770 5768 5765 5763 5760 5757 5755 5752 5749 5746 5744 5741 5738 5736 5733 5730 5728 5725 5722 5719 5717 5714 5711 5708 5705 5703 5700 5697 5694 5691 5689 5686 5682 5679 5677 5675 5672 5668 5665 5662 5659 5656 5653 5650 5646 5643 5641 5638 5635 5632 5629
5769 5767 5764 5762 5759 5756 5753 5751 5748 5745 5742 5739 5737 5734 5731 5728 5726 5723 5720 5717 5714 5711 5708 5705 5702 5700 5697 5694 5691 5688 5685 5683 5680 5677 5673 5670 5668 5666 5663 5660 5657 5654 5650 5647 5644 5640 5637 5634 5632 5629 5626 5623
5765 5763 5760 5758 5755 5752 5749 5747 5744 5741 5738 5735 5732 5729 5727 5724 5721 5718 5715 5712 5709 5706 5703 5700 5697 5694 5691 5688 5685 5682 5679 5676 5673 5670 5667 5663 5660 5658 5656 5653 5651 5648 5645 5641 5638 5634 5630 5627 5625 5623 5620 5617
5762 5759 5756 5754 5751 5748 5746 5743 5739 5736 5733 5730 5728 5725 5722 5719 5716 5713 5710 5707 5704 5701 5697 5694 5691 5688 5685 5682 5679 5676 5673 5670 5667 5664 5661 5657 5654 5650 5647 5645 5644 5642 5639 5636 5632 5629 5625 5620 5618 5616 5613 5610
5758 5755 5753 5750 5747 5744 5741 5738 5735 5732 5729 5726 5723 5720 5717 5715 5712 5708 5705 5702 5698 5695 5692 5688 5685 5682 5679 5676 5673 5670 5667 5664 5661 5657 5654 5651 5648 5644 5640 5636 5635 5634 5633 5630 5627 5623 5619 5614 5610 5608 5605 5602
5754 5751 5749 5746 5743 5740 5736 5733 5730 5727 5724 5721 5718 5715 5712 5709 5706 5703 5700 5696 5693 5689 5686 5683 5680 5677 5674 5670 5667 5664 5661 5657 5654 5651 5648 5644 5641 5638 5634 5630 5627 5626 5624 5623 5620 5618 5614 5608 5603 5600 5597 5594
5750 5747 5744 5741 5738 5735 5732 5728 5725 5722 5718 5716 5713 5709 5706 5703 5700 5697 5694 5691 5687 5684 5681 5677 5674 5671 5667 5664 5661 5657 5654 5651 5647 5644 5641 5638 5634 5631 5628 5624 5619 5617 5616 5614 5611 5610 5608 5605 5599 5594 5589 5586
5745 5742 5739 5736 5733 5730 5727 5723 5720 5717 5713 5710 5707 5704 5700 5697 5694 5691 5688 5685 5681 5678 5675 5671 5668 5664 5661 5657 5654 5650 5647 5643 5640 5637 5633 5630 5627 5623 5620 5616 5611 5608 5606 5604 5602 5599 5598 5597 5594 5590 5584 5581
5741 5738 5735 5732 5729 5725 5722 5719 5716 5712 5708 5705 5702 5698 5695 5692 5688 5685 5682 5679 5676 5672 5668 5665 5661 5658 5654 5650 5647 5643 5639 5635 5632 5629 5625 5622 5619 5616 5613 5609 5603 5598 5596 5594 5592 5589 5587 5585 5584 5582 5578 5576
5736 5733 5730 5727 5724 5720 5717 5714 5711 5708 5704 5701 5697 5693 5690 5686 5683 5679 5676 5673 5669 5665 5662 5658 5654 5650 5646 5643 5639 5636 5632 5628 5624 5621 5617 5614 5611 5608 5605 5602 5597 5591 5586 5584 5581 5579 5576 5573 5572 5571 5568 5566
5731 5728 5725 5722 5719 5715 5712 5709 5706 5702 5699 5696 5692 5688 5684 5681 5677 5673 5670 5666 5662 5659 5655 5651 5647 5643 5639 5636 5632 5628 5625 5620 5617 5613 5609 5606 5603 5599 5596 5594 5590 5584 5579 5574 5571 5568 5565 5562 5559 5559 5557 5554
5726 5723 5720 5717 5714 5711 5708 5704 5700 5697 5694 5690 5686 5682 5678 5675 5671 5667 5663 5659 5655 5651 5648 5644 5640 5636 5633 5629 5625 5621 5617 5613 5609 5605 5601 5598 5594 5591 5587 5585 5581 5576 5571 5566 5562 5558 5555 5552 5548 5546 5545 5542
Wind_Speed
38 38 38 38 38 38 38 38 38 38 38 38 37 37 37 36 36 36 36 36 36 36 36 37 37 38 38 38 38 38 39 39 40 40 41 42 42 43 43 44 44 45 46 46 47 48 48 49 49 50 50 50
37 37 37 37 37 37 37 37 37 37 37 37 36 36 36 35 35 35 36 36 36 36 36 37 37 38 38 38 38 39 39 40 41 42 42 43 43 44 44 45 46 46 47 47 48 49 49 50 50 50 50 50
36 36 35 35 35 35 35 35 36 36 36 36 35 35 35 35 35 35 35 36 36 36 37 37 38 38 38 39 39 40 40 41 42 42 43 44 44 45 45 46 47 47 48 48 49 49 50 50 50 50 50 49
34 33 33 33 34 34 34 35 35 35 35 35 35 35 35 35 35 36 36 36 36 37 37 38 38 39 39 40 40 41 42 42 43 43 44 44 45 45 46 47 47 48 48 49 49 49 49 49 49 49 49 49
32 32 32 33 33 34 34 35 35 35 35 35 35 35 35 36 36 36 36 37 37 38 38 39 39 40 40 41 41 42 42 43 43 44 44 45 45 46 46 47 48 48 48 49 49 49 49 48 48 48 49 49
31 32 32 33 33 34 34 35 35 35 35 35 36 36 36 36 36 36 37 38 38 39 39 40 40 40 41 41 42 42 43 43 44 44 45 45 46 47 47 48 48 49 49 49 49 49 49 49 49 49 49 49
31 32 33 33 34 34 34 34 34 35 35 35 35 36 36 36 37 37 38 38 39 40 40 40 40 41 41 42 42 43 43 44 44 45 45 46 47 47 48 48 49 49 49 49 49 49 49 49 49 49 49 49
32 32 33 33 34 34 34 34 34 35 35 35 35 35 36 36 37 38 39 39 40 40 40 41 41 42 42 42 43 43 44 44 45 45 46 47 47 48 48 49 49 49 49 49 49 49 49 49 49 49 49 49
32 33 33 33 33 33 33 34 34 34 34 35 35 36 36 37 38 39 39 40 41 41 41 42 42 42 43 43 43 44 45 45 46 46 47 47 48 48 49 49 49 49 49 49 49 49 49 49 49 49 49 49
32 33 33 33 33 33 33 34 34 34 35 35 36 36 37 38 39 39 40 40 41 42 42 43 43 43 43 44 44 45 45 46 47 47 47 48 48 48 48 48 48 49 49 49 49 49 49 49 49 49 50 50
32 32 32 32 32 33 33 34 35 35 35 36 36 37 38 38 39 40 40 41 42 42 43 44 44 44 44 45 45 46 46 47 47 48 48 48 48 48 48 49 49 49 49 49 49 49 49 49 49 49 50 50
31 32 32 32 33 33 34 35 35 36 36 37 37 38 38 39 39 40 41 42 43 43 44 44 44 45 45 45 46 46 47 47 48 48 49 49 49 49 49 49 49 50 49 49 49 49 49 49 49 49 49 49
32 32 32 33 34 34 35 36 36 37 37 38 38 39 39 40 40 41 42 43 43 44 44 45 45 45 45 46 46 47 47 48 48 49 49 49 49 49 49 50 50 50 50 49 49 49 49 49 49 49 49 49
32 33 34 34 35 36 36 37 37 38 38 39 39 40 40 41 41 42 43 43 44 44 45 45 45 46 46 46 47 47 48 48 49 49 50 50 50 50 50 50 50 50 50 50 50 50 50 50 50 50 50 50
33 34 34 35 36 37 37 38 38 39 39 40 41 41 42 42 43 43 44 44 45 45 45 46 46 46 47 47 47 48 48 49 49 50 50 50 50 51 51 51 51 51 51 51 51 51 51 51 51 52 51 51
34 34 35 36 37 37 38 39 40 40 41 42 43 43 43 44 44 45 45 45 46 46 46 47 47 47 48 48 48 49 49 50 50 50 51 51 51 51 51 52 52 52 52 52 52 52 52 53 53 54 53 53
34 35 36 37 38 38 39 40 41 42 43 44 44 45 45 45 45 46 46 47 47 47 48 48 48 48 49 49 49 50 50 50 51 51 51 52 52 53 53 53 53 54 54 54 54 54 54 54 55 55 55 55
35 36 37 38 39 39 40 41 42 43 44 45 45 46 46 46 47 47 48 48 49 49 49 49 49 50 50 50 51 51 51 51 52 52 53 53 53 54 54 55 55 55 55 55 55 55 55 56 56 56 56 56
35 37 38 39 40 40 41 42 43 44 45 46 46 47 47 47 48 48 49 49 50 50 51 51 51 51 51 52 52 52 52 53 53 54 54 54 54 55 56 56 57 57 57 57 57 57 57 56 56 57 57 57
36 37 38 39 40 41 42 43 44 45 46 47 47 48 48 48 49 50 50 51 52 52 53 53 53 53 53 53 54 54 54 54 55 55 56 56 56 56 57 58 58 59 59 58 59 58 58 58 57 57 57 57
36 37 38 39 40 41 42 43 45 46 47 48 48 49 49 49 50 51 51 52 53 54 54 55 55 55 55 55 56 56 56 57 57 57 57 58 58 58 59 59 59 59 59 59 60 60 60 59 59 58 58 58
37 37 38 39 40 42 43 44 45 46 47 48 49 50 50 50 51 52 52 53 54 55 56 56 57 57 57 57 58 58 59 59 60 60 60 60 60 61 60 61 61 60 60 60 60 61 61 61 60 60 59 59
37 37 38 40 41 42 43 45 46 46 47 48 49 50 50 51 51 52 53 53 54 55 56 57 58 59 59 59 60 61 61 62 62 62 62 62 62 63 63 63 63 63 62 62 62 62 62 62 62 61 61 61
37 38 39 40 41 42 43 44 45 46 47 48 48 49 50 50 51 51 52 53 55 56 57 58 59 60 60 61 61 62 63 63 64 64 64 64 64 65 66 66 66 66 66 66 65 65 65 65 65 64 64 63
37 38 39 41 42 42 43 44 45 46 47 47 48 49 50 50 51 52 53 54 55 56 57 59 60 61 61 62 63 64 64 65 65 65 65 66 66 67 67 68 69 69 69 68 68 67 67 67 67 66 66 65
38 39 40 41 42 42 43 44 45 46 47 47 48 49 50 51 52 53 53 54 55 57 58 59 60 61 62 63 64 64 65 65 66 66 67 67 68 68 69 69 70 70 70 70 70 70 68 67 67 67 66 65
39 40 40 41 42 42 43 44 45 46 47 48 48 50 51 52 52 53 54 55 55 57 58 59 60 61 62 63 64 64 65 66 67 67 68 68 68 69 70 70 71 72 72 71 71 71 71 70 69 68 67 66
40 40 41 42 42 43 43 44 45 46 47 48 49 50 51 52 53 53 54 55 55 56 57 58 59 60 61 62 63 64 66 66 67 68 69 69 69 69 69 70 71 72 73 73 72 72 72 72 71 70 69 67
40 40 41 42 42 43 44 45 46 47 48 49 49 50 51 52 52 53 53 54 55 56 57 58 59 60 61 62 63 64 66 67 68 69 69 70 70 70 69 69 71 72 73 73 73 73 73 72 71 70 70 69
41 41 42 42 43 43 44 45 46 47 48 48 49 49 50 50 51 52 53 55 56 57 58 59 60 61 62 63 64 65 66 67 68 69 70 70 70 70 70 70 70 71 72 73 73 72 72 72 72 71 70 70
42 42 42 42 42 43 44 45 46 47 48 47 47 48 48 50 51 53 55 56 58 59 59 60 61 61 62 63 64 65 66 67 69 69 70 70 71 71 71 71 71 72 72 73 73 73 72 72 72 72 71 71
Wind_Direction
305 305 306 306 307 307 308 308 309 309 310 310 310 309 309 308 307 306 306 305 304 304 304 305 304 304 304 305 305 306 307 307 306 306 306 306 306 306 305 305 305 305 305 305 305 304 304 304 303 302 301 300
307 307 307 307 308 308 308 309 310 310 310 309 309 308 307 307 306 305 304 304 304 304 305 305 305 306 306 307 307 308 307 307 307 307 307 307 307 307 307 306 306 306 306 306 305 305 304 303 302 301 300 299
307 307 307 307 308 308 309 310 310 310 309 309 308 307 306 305 304 304 304 305 306 306 307 307 308 308 308 309 308 308 308 309 309 309 309 308 308 308 307 307 306 306 306 305 305 304 303 302 301 300 299 299
306 306 307 308 309 309 310 310 310 309 309 308 307 306 305 304 304 305 306 307 308 309 309 309 309 309 309 309 309 310 310 310 309 309 308 308 308 307 307 306 306 306 306 305 304 303 302 301 300 299 299 299
306 307 308 309 310 311 311 310 309 309 308 307 306 305 305 306 307 309 310 310 310 311 311 310 310 310 310 310 311 311 310 309 309 308 308 308 307 307 307 307 307 306 306 305 304 303 302 301 300 299 299 300
308 309 310 311 311 311 310 309 308 307 306 306 306 306 308 309 310 311 311 311 311 311 311 310 310 310 310 311 310 310 309 309 308 308 308 308 308 308 308 307 307 306 305 304 303 302 302 301 300 300 300 300
310 311 311 311 310 310 309 308 307 306 306 306 307 309 310 311 312 312 312 311 311 310 310 310 310 310 310 310 309 309 309 308 308 308 308 308 308 308 308 307 306 306 305 304 303 302 301 301 301 301 301 301
311 311 311 310 309 308 307 306 306 306 306 308 310 311 312 312 312 312 311 310 310 309 310 310 310 310 310 309 309 309 308 308 308 308 309 309 308 308 307 306 305 305 304 303 302 302 301 301 301 300 301 301
310 310 309 308 308 307 307 306 307 307 308 310 311 312 312 312 312 311 310 309 309 310 310 310 310 310 310 310 309 309 309 309 309 309 309 308 308 307 306 305 304 303 303 302 302 301 301 301 301 301 301 302
309 309 308 308 308 308 308 308 308 309 310 311 311 311 311 311 310 310 309 309 309 310 310 310 310 310 310 310 310 309 309 309 309 308 308 307 307 306 305 304 303 303 303 303 302 302 302 302 302 303 303 303
309 308 308 308 308 308 308 308 308 309 310 310 310 310 310 310 309 309 309 309 310 310 310 310 310 310 310 310 310 309 309 308 308 307 307 306 306 305 304 304 303 303 303 303 303 303 303 303 303 303 303 304
308 307 307 307 307 307 307 308 308 309 309 310 310 310 309 309 309 309 310 310 311 311 311 310 310 310 310 310 309 309 308 307 307 306 306 305 305 305 304 304 304 303 303 303 303 303 303 303 303 303 303 304
307 307 307 307 307 307 307 308 308 309 309 310 309 309 309 310 310 310 311 311 311 311 310 310 310 309 309 309 308 308 307 307 306 306 305 305 305 305 304 304 303 303 302 302 302 302 302 303 303 303 304 304
308 308 307 307 307 307 307 308 308 308 309 310 310 310 310 311 311 311 311 311 311 310 310 309 309 309 309 309 308 308 307 306 306 305 305 305 305 305 304 304 303 303 302 302 302 302 303 303 303 304 304 305
308 307 307 307 307 307 308 308 309 310 310 311 311 312 312 312 312 312 311 311 310 310 309 309 309 309 309 308 308 307 306 306 305 305 305 304 304 304 304 303 303 302 302 302 302 302 303 303 304 304 304 304
308 307 307 307 308 308 309 309 310 311 312 312 313 313 313 312 312 312 311 311 310 310 309 309 309 309 308 308 307 307 306 306 305 305 304 304 303 303 302 302 302 302 302 302 302 302 302 303 303 303 304 304
309 308 308 309 309 310 310 311 312 312 313 313 313 312 312 312 312 311 311 310 310 310 309 309 309 308 308 307 307 307 306 305 304 304 303 302 302 301 301 301 301 301 301 301 301 302 302 302 303 303 303 303
310 310 310 311 311 312 312 312 313 313 312 312 312 312 312 312 312 311 311 310 310 309 309 308 308 308 308 307 307 307 306 305 304 302 302 301 301 301 300 300 300 300 301 301 301 301 301 302 302 303 303 303
312 313 313 314 314 314 313 313 312 312 311 311 311 311 312 312 311 311 310 310 309 309 309 308 308 308 308 307 307 306 305 304 303 302 301 300 300 300 300 300 299 300 300 300 300 300 300 301 301 302 302 302
315 316 316 316 316 315 314 312 311 311 311 311 311 311 312 311 311 310 310 310 310 309 309 309 309 308 307 307 306 306 305 304 303 302 301 300 299 299 299 299 299 299 299 299 299 299 299 299 300 300 300 301
318 318 318 317 315 314 313 312 311 311 311 311 311 311 311 311 311 310 310 310 310 309 309 309 308 308 307 307 306 306 305 304 304 303 302 301 300 299 299 298 298 298 299 299 299 299 298 298 299 299 299 300
320 319 318 316 314 313 312 312 312 312 311 311 311 311 311 311 311 311 311 310 309 309 309 308 308 307 307 306 306 306 305 305 304 303 302 301 300 299 298 298 298 298 298 298 298 298 298 298 298 299 299 299
319 317 315 314 313 313 313 313 312 311 310 310 310 310 310 311 311 310 310 309 308 308 308 307 307 307 307 306 306 306 305 305 304 303 302 301 300 299 299 298 298 298 298 298 298 298 298 298 298 298 299 299
317 315 314 314 315 314 313 312 311 310 310 309 309 309 309 309 309 308 308 307 307 307 307 307 307 307 307 306 306 305 305 304 303 303 302 301 301 300 300 299 299 299 298 298 298 298 298 298 298 299 299 300
315 315 316 316 315 314 313 312 311 311 310 309 309 309 309 309 309 308 308 307 307 307 307 306 307 307 307 306 306 305 305 304 303 303 302 302 302 301 301 300 300 300 299 299 298 298 298 298 299 299 299 299
317 318 317 316 315 315 314 313 312 311 310 310 310 309 309 309 309 309 308 308 307 307 307 307 307 307 307 306 305 305 304 304 304 303 303 303 303 303 302 301 300 300 299 299 298 298 297 297 298 298 298 298
318 318 317 316 316 316 315 314 313 312 311 310 310 309 309 309 309 309 308 308 307 307 307 307 307 306 306 305 305 305 304 304 304 304 304 304 303 303 302 302 301 300 300 299 299 299 298 298 297 297 297 297
316 315 315 315 316 315 314 314 313 312 311 311 310 310 310 309 309 309 308 308 307 307 306 306 305 305 304 304 304 304 305 305 304 304 304 304 303 303 302 302 301 301 300 300 300 299 299 299 298 298 297 296
314 313 313 314 314 314 313 312 311 311 311 310 310 309 309 309 309 308 308 307 307 306 305 305 304 304 303 304 304 304 304 304 304 303 303 303 302 302 302 301 301 300 300 300 300 300 300 300 299 299 298 297
312 312 312 313 313 312 311 310 310 309 309 309 309 308 308 308 308 307 307 306 305 305 304 303 303 303 303 303 303 304 304 303 303 303 302 302 302 302 301 301 300 300 300 300 300 301 301 301 301 300 299 297
312 312 312 311 311 310 309 308 308 307 307 308 307 306 306 306 306 305 305 305 304 303 303 302 302 302 302 302 302 303 303 302 302 302 302 302 302 302 301 301 301 300 300 301 301 302 302 301 301 300 299 297